Weather in Smerdomskiy

Russia / Vologda Oblast     59°10′34″N   35°03′43″E
temp.,
°C
wind,
m/s
gust,
m/s
humid.,
%
clouds,
%
prec.,
mm/h
press.,
hPa
HPBL,
m
7 august, sun
sun700:00+22sw41168100 0.3 1013582
03:00+14nw4990100 0.4 1015381
06:00+13nw2997100 4.6 1016542
09:00+14wnw2694100 7.3 1018497
12:00+18wnw2458100 0.1 10191158
15:00+18wnw3445100 0.1 10191184
18:00+19w2547100 0.0 10191523
21:00+14wnw237044 0.0 102077
8 august, mon
mon800:00+11nw11804 0.0 102110
03:00+10wnw11855 0.0 102211
06:00+11w118098 0.0 102324
09:00+18sw125445 0.0 1023482
12:00+21w114094 0.0 10231514
15:00+23sw1135100 0.0 10222249
18:00+21s114194 0.0 10221204
21:00+16wnw2261100 0.0 102331
9 august, tue
tue900:00+15n1164100 0.0 102320
03:00+14n2475100 0.0 1023121
06:00+13nne258199 0.0 1024176
09:00+16nne346891 0.0 1023503
12:00+19n335778 0.0 10241185
15:00+18n3362100 0.5 1023856
18:00+15n247579 0.0 1024396
21:00+12n23925 0.0 102445
10 august, wed
wed1000:00+11n249817 0.0 102483
03:00+10nnw259897 0.1 102497
06:00+10n279384 0.0 1024190
09:00+16n35599 0.0 1023627
12:00+19n344712 0.0 10231287
15:00+21nw2444100 0.0 10221792
18:00+20nw1252100 0.0 1022157
21:00+16nw245889 0.0 1022101
11 august, thu
thu1100:00+12nw22685 0.0 102336
03:00+10wnw237647 0.0 102451
06:00+12nnw117590 0.0 102710
09:00+20wsw12485 0.0 1026389
12:00+23wsw343727 0.0 10251920
15:00+24wsw3433100 0.0 10242141
18:00+22w2543100 0.0 1024709
21:00+16w236597 0.0 102448